Regional Weather Roundup
Issued by NWS Charleston, SC

Current Version | Previous Version | Graphics & Text | Print | Product List | Glossary On
Versions: 1 2 3 4 5 6 7 8 9 10 11 12 13 14 15 16 17 18 19 20 21 22 23 24 25 26 27 28 29 30 31 32 33 34 35 36 37 38 39 40 41 42 43 44 45 46 47 48 49 50
000
ASUS42 KCHS 310326
RWRCHS

REGIONAL WEATHER ROUNDUP
NATIONAL WEATHER SERVICE CHARLESTON SC
1100 PM EDT SUN AUG 30 2015

NOTE: "FAIR" INDICATES FEW OR NO CLOUDS BELOW 12,000 FEET WITH NO
SIGNIFICANT WEATHER AND/OR OBSTRUCTIONS TO VISIBILITY.

NOT ALL STATIONS ARE QUALITY CONTROLLED BY THE NATIONAL
WEATHER SERVICE. USE DATA WITH CAUTION...ESPECIALLY
DEWPOINT OBSERVATIONS.

SCZ027-030-031-034>040-042>050-310400-
...SOUTHEAST SOUTH CAROLINA...

CITY           SKY/WX    TMP DP  RH WIND       PRES   REMARKS
N CHARLESTON   CLOUDY    77  73  87 SE8       30.07F
WATERFRONT PRK   N/A     80  75  84 SE20      30.04F
MOUNT PLEASANT LGT RAIN  79  73  83 SE10      30.07F
JOHNS ISLAND   MOCLDY    79  73  83 SE13      30.07S
PINOPOLIS        N/A     75  72  88 E7        30.01F
MONCKS CORNER  MOCLDY    73  72  94 CALM      30.08F
SUMMERVILLE    RAIN      72  72 100 CALM      30.09S
BEAUFORT MCAS  RAIN      77  75  93 SE5       30.05S
BEAUFORT ARPT  CLOUDY    77  75  94 SE6       30.05S
HILTON HEAD IS CLOUDY    79  75  89 SE7       30.06S
WALTERBORO     RAIN      75  73  94 NE7       30.07F
ALLENDALE      LGT RAIN  73  73 100 N5        30.06F

...SOUTHERN MIDLANDS AND PEE DEE...

CITY           SKY/WX    TMP DP  RH WIND       PRES   REMARKS
GEORGETOWN     NOT AVBL
KINGSTREE      NOT AVBL
ORANGEBURG     LGT RAIN  73  71  93 CALM      30.10F
BARNWELL       MOCLDY    72  72 100 NE6       30.10F
AIKEN          CLOUDY    66  64  94 N3        30.14S
MANNING        CLOUDY    70  70 100 CALM      30.10F
COLUMBIA       RAIN      71  68  90 E7        30.10F FOG
SUMTER         DRIZZLE   72  70  94 NE5       30.09S
FLORENCE       CLOUDY    70  69  97 NE3       30.11F
MYRTLE BEACH   CLOUDY    79  72  78 E10       30.12
N MYRTLE BEACH CLOUDY    78  74  87 E8        30.11S

$$

GAZ063-065-086>088-099>101-113>116-118-119-134>141-150-310400-
...SOUTHEAST GEORGIA...

CITY           SKY/WX    TMP DP  RH WIND       PRES   REMARKS
SAVANNAH ARPT  CLOUDY    75  73  93 CALM      30.05F
HUNTER AAF     CLOUDY    77  77 100 SE2       30.02S
FORT STEWART   MOCLDY    75  74  94 CALM      30.03S
STATESBORO     DRIZZLE   74  32  21 NE3       30.06F
SYLVANIA       CLOUDY    75  75 100 NE6       30.07F
CLAXTON        NOT AVBL

...CSRA...CENTRAL AND FAR SOUTHEAST GEORGIA...

CITY           SKY/WX    TMP DP  RH WIND       PRES   REMARKS
THOMSON        PTCLDY    71  71 100 CALM      30.14S
AUGUSTA-BUSH   CLOUDY    70  68  93 N3        30.09R
AUGUSTA-DANIEL CLOUDY    76  67  73 NE6       30.10F
SWAINSBORO     CLOUDY   N/A N/A N/A NE5       30.08S
VIDALIA        CLOUDY    73  72  94 CALM      30.07R
EASTMAN        CLOUDY    75  75 100 E7        30.09S
HAZLEHURST     CLOUDY    76  76 100 NE5       30.05R
ALMA           CLOUDY    76  74  93 CALM      30.05R
WAYCROSS       CLOUDY    80  79  97 CALM      30.03F
JESUP          MOCLDY    77  77 100 NE3       30.04S
BAXLEY         CLOUDY    77  73  88 CALM      30.05R
BRUNSWICK      CLOUDY    75  73  94 CALM      30.02F
SAINT SIMONS   CLOUDY    80  75  84 SW3       30.02F

$$

SCZ027-028-034-036>038-045-046-048>050-GAZ119-141-310400-
...LAKE AND SUPPLEMENTAL COASTAL OBSERVATIONS...

STATION/POSITION TIME  TEMP    WIND        PRES    WAVE   SWELL
                       AIR SEA DIR/SP/G            HT/PER HT/PER/DIR
                 (UTC) (F)     (DEG/KT/KT) (MB)    (FT/S) (FT/S/D)
UPR LAKE MARION  NOT AVBL
WINYAH BAY       0200   78     100/ 10     1019.0
LAKE MURRAY      0200   72      90/ 11/ 15 1019.6R
ACE BASIN NERRS  NOT AVBL
FORT PULASKI     NOT AVBL
SAPELO ISLAND    0300   81     170/ 11     1017.0S

$$

ANZ835-935-AMZ111-154-330-350-352-354-370-450-454-472-310400-
...C-MAN AND BUOY OBSERVATIONS...

STATION/POSITION TIME  TEMP    WIND        PRES    WAVE   SWELL
                       AIR SEA DIR/SP/G            HT/PER HT/PER/DIR
                 (UTC) (F)     (DEG/KT/KT) (MB)    (FT/S) (FT/S/D)
BUOY 41004       0250   80 85  110/ 17/ 21 1018.1F   6/10   5/10
BUOY 41008       0250   80 84  160/ 14/ 17 1016.6F   5/11   3/110/11
FOLLY BEACH CMAN 0300   80     120/ 18/ 22 1018.4F
CAPERS NEARSHORE 0208   80     140/ 17/ 23 1019.0R
FRIPP NEARSHORE  0200   80     140/ 19/ 23 1017.3R


STATION/POSITION TIME  TEMP    WIND        PRES    WAVE   SWELL
                       AIR SEA DIR/SP/G            HT/PER HT/PER/DIR
                 (UTC) (F)     (DEG/KT/KT) (MB)    (FT/S) (FT/S/D)
5E ST. MARYS GA  0221      85                N/A     5/11   2/110/11
FRYING PAN BUOY  0250   79 82  120/  8/ 12 1020.3F   4/10   3/130/10
BUOY 41025       0250   79 83  260/  2/  4 1020.5F   3/10   3/100/10
CAPE LOOKOUT NC  0300   78     190/  2/  3 1020.1F
BUOY 41002       0250   84 84  180/  8/ 12 1020.8F   4/ 9   3/150/ 9
BUOY 41010       0220   85 86  150/ 14/ 16 1018.0F
ST AUGUSTINE FL  0300   80 84  110/  6/  6 1017.1S


$$


USA.gov is the U.S. government's official web portal to all federal, state and local government web resources and services.